[[{"header":{"parameterUnit":"m.s-1","parameterCategory":1,"la1":30.2991,"la2":30.254,"lo1":-89.0895,"lo2":-89.0444,"dx":0.0017,"dy":0.0017,"nx":28,"ny":28,"refTime":"2022-12-23T15:00:00:Z","depth":0,"parameterNumber":2,"parameterNumberName":"U-component_of_WINDS"},"data":[0,0,0,0,0,0,0,0,0,0,0,0,0,0,0,0,0,0,0,0,0,0,0,0,0,0,0,0,0,0,0,0,0,0,0,0,0,0,0,0,0,0,0,0,0,0,0,0,0,0,0,0,0,0,0,0,0,0,4.3132,4.3132,0,4.3159,4.3159,4.316,4.3097,4.3095,4.3093,4.3091,4.3117,4.3119,4.3121,0,0,0,0,0,0,0,0,0,0,0,0,0,4.3024,4.3027,4.3132,4.3132,4.3132,4.3159,4.3159,4.316,4.3097,4.3095,4.3092,4.309,4.3116,4.3119,4.3122,0,0,0,0,0,0,0,0,0,0,0,0,0,4.3063,4.3027,4.3132,4.3104,4.3102,4.3159,4.3159,4.316,4.3098,4.3095,4.3092,4.3089,4.3115,4.3118,4.3122,4.3206,0,0,4.3134,4.3135,0,0,0,0,0,0,0,0,4.3061,4.3067,4.3108,4.3106,4.3104,4.3121,4.3131,4.3175,4.3098,4.3099,4.3091,4.3087,4.312,4.3124,4.3135,4.3207,4.3208,4.3134,4.3136,4.3138,4.3139,0,0,0,0,0,0,0,4.3058,4.3066,4.3142,4.3109,4.3106,4.309,4.3093,4.3139,4.3126,4.3099,4.3095,4.3099,4.3119,4.3132,4.3135,4.3208,4.3134,4.3137,4.314,4.3141,4.335,4.3353,0,0,0,0,0,0,4.3059,4.3064,4.3142,4.3143,4.3075,4.3095,4.3097,4.3119,4.3126,4.3124,4.3101,4.3096,4.3127,4.3131,4.3136,4.3234,4.3138,4.3142,4.3144,4.3347,4.3351,4.3355,0,0,0,0,0,0,4.3057,4.3067,4.314,4.3102,4.3111,4.31,4.3125,4.3121,4.3134,4.3127,4.3125,4.3117,4.3124,4.3131,4.3189,4.3234,4.3143,4.3147,4.3343,4.3348,4.3353,4.3431,0,0,0,0,0,0,4.3055,4.3067,4.3098,4.3104,4.3113,4.3194,4.3127,4.3124,4.3141,4.3134,4.3141,4.314,4.3123,4.3184,4.3193,4.3238,4.315,4.3339,4.3345,4.3351,4.3424,4.3438,4.345,0,0,0,0,0,4.3051,4.3119,4.31,4.311,4.3152,4.3196,4.3201,4.3181,4.3145,4.3176,4.3172,4.3139,4.3228,4.319,4.32,4.3247,4.3336,4.3344,4.3351,4.3419,4.3435,4.3449,0,0,0,0,0,0,4.3118,4.3119,4.3098,4.317,4.3184,4.3186,4.3225,4.3199,4.3223,4.3215,4.3189,4.3191,4.3254,4.3256,4.3214,4.3328,4.3276,4.3285,4.3324,4.334,4.3352,4.335,4.3153,0,0,0,0,0,4.3141,4.3178,4.3176,4.3239,4.3248,4.3236,4.3254,4.3237,4.325,4.3255,4.3255,4.3268,4.3299,4.332,4.3348,4.3425,4.3425,4.3462,4.3475,4.3485,4.3493,4.3534,4.355,4.3379,4.3379,4.3378,0,0,4.3189,4.3194,4.3219,4.3253,4.3262,4.3299,4.324,4.3282,4.331,4.3261,4.3316,4.3317,4.333,4.3399,4.3429,4.3402,4.3541,4.3494,4.3503,4.3505,4.3543,4.356,4.3574,4.3384,4.3383,4.3382,0,0,4.3296,4.3304,4.3357,4.3368,4.3382,4.3374,4.3387,4.3393,4.3392,4.3448,4.3412,4.3444,4.3498,4.3508,4.3521,4.3634,4.3604,4.3644,4.3709,4.375,4.3763,4.3775,4.3814,4.3829,4.3652,4.3653,4.3653,0,4.3353,4.3409,4.3388,4.3433,4.3449,4.3408,4.3462,4.3473,4.3495,4.3507,4.3478,4.3545,4.3551,4.3621,4.3649,4.3661,4.3674,4.3642,4.3763,4.3775,4.3785,4.3823,4.3838,4.3657,4.3657,4.3656,4.3656,0,4.3479,4.3518,4.356,4.3584,4.3605,4.3654,4.364,4.3664,4.3646,4.3641,4.3698,4.3704,4.3733,4.3749,4.3731,4.3817,4.38,4.3768,4.3714,4.3807,4.3841,4.3856,4.3664,4.3662,4.3661,4.366,0,0,4.3626,4.3639,4.3655,4.3665,4.3679,4.3709,4.3757,4.3786,4.3806,4.3824,4.3863,4.391,4.388,4.3895,4.3878,4.3914,4.4003,4.3877,4.3877,4.3899,4.4097,4.412,4.4137,4.3984,4.3987,4.3989,4.4095,0,4.3731,4.3813,4.3797,4.3877,4.3913,4.3876,4.3917,4.393,4.3927,4.3957,4.3953,4.3987,4.3946,4.3954,4.3988,4.3985,4.4042,4.3977,4.4019,4.4021,4.4015,4.4155,4.418,4.428,4.4109,4.4111,4.4113,0,4.3863,4.3887,4.3972,4.3981,4.3995,4.4033,4.4058,4.4088,4.4102,4.4097,4.4114,4.4091,4.4138,4.4086,4.415,4.4107,4.4123,4.4125,4.4128,4.413,4.4071,4.416,4.4312,4.4327,4.4134,4.4132,4.4131,0,4.3962,4.4015,4.4072,4.4083,4.4094,4.4122,4.4128,4.4139,4.4158,4.418,4.4192,4.422,4.4235,4.4256,4.4242,4.4205,4.4308,4.4255,4.4305,4.4305,4.4327,4.4325,4.4482,4.434,4.434,4.4339,4.4339,0,4.4079,4.4132,4.4116,4.4152,4.421,4.4191,4.4249,4.425,4.4261,4.4295,4.4265,4.4298,4.4277,4.4309,4.4298,4.4352,4.4359,4.4356,4.4353,4.4358,4.4359,4.4367,4.436,4.4343,4.4343,4.4342,4.4341,0,4.4198,4.419,4.425,4.4257,4.426,4.4302,4.4308,4.4341,4.4336,4.4381,4.439,4.4383,4.4418,4.4406,4.4444,4.4436,4.4506,4.4494,4.4501,4.4498,4.4548,4.4543,4.4715,4.4736,4.4582,4.4583,4.4584,0,4.4273,4.4313,4.4325,4.4346,4.4355,4.439,4.441,4.4392,4.4414,4.4434,4.4464,4.4497,4.4522,4.4581,4.4578,4.4607,4.4595,4.4653,4.4598,4.4603,4.4594,4.4591,4.4595,4.4663,4.4665,4.4667,4.4668,0,4.4407,4.4401,4.4431,4.446,4.4484,4.4506,4.4524,4.4543,4.4528,4.4553,4.459,4.461,4.4649,4.4682,4.4708,4.4714,4.4688,4.4685,4.4698,4.4704,4.4706,4.4704,4.4529,4.4681,4.468,4.4679,4.4678,4.4677,4.4505,4.4539,4.4553,4.4587,4.46,4.4619,4.465,4.465,4.468,4.4711,4.47,4.4741,4.4755,4.4788,4.4798,4.483,4.4807,4.4826,4.483,4.4835,4.4841,4.4703,4.4834,4.4834,4.4834,4.4833,4.4833,0,4.4636,4.4644,4.4676,4.4704,4.4731,4.4706,4.4726,4.475,4.4787,4.4803,4.4829,4.4871,4.4903,4.4904,4.4934,4.496,4.4949,4.4968,4.4965,4.4967,4.486,4.4845,4.4977,4.4977,4.4976,4.4976,4.4976,4.4976,4.4708,4.4764,4.476,4.4823,4.483,4.4871,4.4884,4.4901,4.4914,4.4962,4.4989,4.499,4.5,4.5031,4.5059,4.5058,4.507,4.5094,4.5089,4.4989,4.4974,4.4961,4.4947,4.5097,4.5097,4.5193,4.5194,4.5194]},{"header":{"parameterUnit":"m.s-1","parameterCategory":1,"la1":30.2991,"la2":30.254,"lo1":-89.0895,"lo2":-89.0444,"dx":0.0017,"dy":0.0017,"nx":28,"ny":28,"refTime":"2022-12-23T15:00:00:Z","depth":0,"parameterNumber":3,"parameterNumberName":"V-component_of_WINDS"},"data":[0,0,0,0,0,0,0,0,0,0,0,0,0,0,0,0,0,0,0,0,0,0,0,0,0,0,0,0,0,0,0,0,0,0,0,0,0,0,0,0,0,0,0,0,0,0,0,0,0,0,0,0,0,0,0,0,0,0,-6.4327,-6.4328,0,-6.4486,-6.4488,-6.449,-6.4442,-6.4439,-6.4435,-6.4432,-6.4594,-6.4601,-6.4608,0,0,0,0,0,0,0,0,0,0,0,0,0,-6.398,-6.3987,-6.4327,-6.4329,-6.4331,-6.4486,-6.4488,-6.449,-6.4443,-6.4439,-6.4435,-6.4431,-6.4592,-6.46,-6.4609,0,0,0,0,0,0,0,0,0,0,0,0,0,-6.4134,-6.3989,-6.4326,-6.4326,-6.4327,-6.4485,-6.4488,-6.4491,-6.4443,-6.4438,-6.4433,-6.4429,-6.4589,-6.4599,-6.461,-6.4778,0,0,-6.4644,-6.4649,0,0,0,0,0,0,0,0,-6.4126,-6.4147,-6.4324,-6.4326,-6.4328,-6.4439,-6.4425,-6.4587,-6.4445,-6.4399,-6.4432,-6.4426,-6.4546,-6.4561,-6.4601,-6.4786,-6.4793,-6.4645,-6.4652,-6.4657,-6.466,0,0,0,0,0,0,0,-6.4115,-6.414,-6.4389,-6.4326,-6.4329,-6.4317,-6.4333,-6.4455,-6.4499,-6.4403,-6.44,-6.4419,-6.4547,-6.4591,-6.4605,-6.4795,-6.4645,-6.4655,-6.4662,-6.4666,-6.5125,-6.513,0,0,0,0,0,0,-6.4103,-6.4131,-6.4384,-6.4394,-6.4212,-6.4327,-6.4346,-6.4408,-6.4497,-6.4506,-6.4423,-6.4417,-6.4574,-6.4592,-6.461,-6.4813,-6.4657,-6.4667,-6.4673,-6.512,-6.5126,-6.5132,0,0,0,0,0,0,-6.4096,-6.4126,-6.4378,-6.4262,-6.4293,-6.4339,-6.4409,-6.4414,-6.4458,-6.4513,-6.452,-6.4461,-6.4571,-6.4595,-6.4737,-6.4818,-6.4672,-6.4682,-6.5113,-6.5122,-6.5129,-6.5219,0,0,0,0,0,0,-6.4086,-6.4124,-6.4188,-6.4264,-6.43,-6.4503,-6.4414,-6.4421,-6.4478,-6.447,-6.455,-6.4558,-6.4569,-6.4721,-6.4748,-6.483,-6.4691,-6.5106,-6.5117,-6.5127,-6.5209,-6.5229,-6.5246,0,0,0,0,0,-6.4074,-6.4207,-6.4192,-6.4223,-6.4381,-6.4507,-6.4528,-6.4538,-6.4484,-6.455,-6.4584,-6.4556,-6.4804,-6.4736,-6.4766,-6.4853,-6.5101,-6.5114,-6.5126,-6.52,-6.5225,-6.5246,0,0,0,0,0,0,-6.4139,-6.4217,-6.4201,-6.4362,-6.4429,-6.4499,-6.4582,-6.4564,-6.4646,-6.4636,-6.4644,-6.4663,-6.4809,-6.4845,-6.4767,-6.502,-6.4945,-6.4964,-6.4991,-6.5015,-6.5033,-6.5021,-6.47,0,0,0,0,0,-6.4172,-6.4269,-6.4331,-6.4468,-6.4502,-6.4536,-6.4591,-6.4594,-6.4662,-6.469,-6.4735,-6.4803,-6.4896,-6.4957,-6.5046,-6.5214,-6.523,-6.5288,-6.5307,-6.5322,-6.5339,-6.543,-6.5456,-6.5173,-6.5173,-6.5173,0,0,-6.4242,-6.4296,-6.4356,-6.4482,-6.4534,-6.4633,-6.456,-6.4668,-6.4742,-6.4706,-6.4843,-6.4879,-6.4955,-6.5111,-6.5181,-6.5145,-6.542,-6.5338,-6.535,-6.5358,-6.5445,-6.5472,-6.5496,-6.5182,-6.518,-6.5179,0,0,-6.442,-6.4471,-6.459,-6.4643,-6.4722,-6.4744,-6.4773,-6.4847,-6.4869,-6.5007,-6.4982,-6.507,-6.523,-6.5285,-6.5334,-6.5533,-6.5509,-6.5562,-6.566,-6.5749,-6.5771,-6.5791,-6.5861,-6.5887,-6.5578,-6.5578,-6.5578,0,-6.4496,-6.4645,-6.4653,-6.4764,-6.482,-6.4793,-6.4913,-6.4964,-6.5069,-6.5108,-6.5066,-6.5267,-6.5316,-6.5484,-6.5532,-6.5573,-6.5606,-6.5553,-6.5767,-6.5787,-6.5806,-6.5873,-6.59,-6.5584,-6.5583,-6.5583,-6.5582,0,-6.4735,-6.4838,-6.4925,-6.5027,-6.5092,-6.5208,-6.5233,-6.5298,-6.5295,-6.5321,-6.5462,-6.552,-6.562,-6.566,-6.5657,-6.5828,-6.5803,-6.5764,-6.5689,-6.5838,-6.5902,-6.5928,-6.5592,-6.559,-6.5588,-6.5587,0,0,-6.4958,-6.5063,-6.5095,-6.514,-6.5226,-6.5306,-6.5419,-6.5518,-6.5574,-6.5646,-6.5742,-6.5878,-6.5843,-6.5899,-6.5902,-6.598,-6.6133,-6.5932,-6.5933,-6.5967,-6.6325,-6.6353,-6.6383,-6.6118,-6.6123,-6.6127,-6.6318,0,-6.5143,-6.5343,-6.5354,-6.5536,-6.5631,-6.5607,-6.5706,-6.5769,-6.5796,-6.5881,-6.5911,-6.6008,-6.5954,-6.5988,-6.6064,-6.6099,-6.6205,-6.6085,-6.6207,-6.6211,-6.6188,-6.6416,-6.6447,-6.6624,-6.6343,-6.6347,-6.635,0,-6.5385,-6.5466,-6.5657,-6.5729,-6.5769,-6.5858,-6.5949,-6.6031,-6.6101,-6.6116,-6.6178,-6.6171,-6.6286,-6.6207,-6.6367,-6.6285,-6.6335,-6.636,-6.6367,-6.6379,-6.629,-6.6434,-6.6681,-6.6708,-6.639,-6.6386,-6.6384,0,-6.5529,-6.5685,-6.582,-6.586,-6.5947,-6.601,-6.6049,-6.6114,-6.6173,-6.6252,-6.629,-6.6382,-6.6432,-6.6503,-6.652,-6.6461,-6.668,-6.6602,-6.6695,-6.6695,-6.6742,-6.6739,-6.7001,-6.6775,-6.6774,-6.6774,-6.6773,0,-6.5734,-6.5852,-6.5885,-6.5968,-6.6099,-6.6111,-6.624,-6.6275,-6.6334,-6.6423,-6.6407,-6.6491,-6.6508,-6.6595,-6.6609,-6.6739,-6.6762,-6.6777,-6.6779,-6.6778,-6.6777,-6.6811,-6.68,-6.6781,-6.6779,-6.6778,-6.6777,0,-6.5917,-6.5944,-6.6089,-6.6159,-6.618,-6.6274,-6.6334,-6.6413,-6.6439,-6.6551,-6.6578,-6.6619,-6.672,-6.6745,-6.6866,-6.6875,-6.7029,-6.7019,-6.7005,-6.7005,-6.7096,-6.7087,-6.739,-6.743,-6.7177,-6.718,-6.7182,0,-6.6046,-6.6136,-6.6216,-6.6275,-6.6317,-6.6412,-6.6471,-6.6485,-6.6548,-6.6635,-6.6704,-6.6804,-6.6885,-6.7049,-6.7089,-6.7181,-6.7173,-6.7273,-6.7187,-6.7184,-6.7175,-6.7169,-6.7178,-6.7289,-6.7292,-6.7294,-6.7296,0,-6.6272,-6.6281,-6.6368,-6.646,-6.6531,-6.6604,-6.6674,-6.6722,-6.6746,-6.6817,-6.6921,-6.6984,-6.7108,-6.7207,-6.73,-6.734,-6.7323,-6.7323,-6.7349,-6.7349,-6.7338,-6.7345,-6.705,-6.7316,-6.7314,-6.7312,-6.7311,-6.731,-6.6432,-6.6511,-6.658,-6.6677,-6.6731,-6.6796,-6.6874,-6.691,-6.6997,-6.7099,-6.7102,-6.7215,-6.7283,-6.7407,-6.7452,-6.754,-6.751,-6.7548,-6.7558,-6.7567,-6.7575,-6.7323,-6.7557,-6.7557,-6.7556,-6.7556,-6.7555,0,-6.6658,-6.6701,-6.679,-6.6888,-6.6964,-6.6941,-6.7017,-6.7082,-6.7182,-6.7247,-6.7327,-6.7447,-6.7543,-6.7591,-6.7686,-6.7748,-6.7742,-6.7772,-6.7768,-6.7777,-6.7597,-6.7565,-6.7775,-6.7775,-6.7775,-6.7775,-6.7775,-6.7775,-6.6784,-6.6917,-6.6934,-6.7093,-6.7135,-6.7246,-6.7291,-6.7351,-6.7403,-6.7538,-6.7618,-6.7648,-6.7706,-6.7806,-6.7893,-6.7904,-6.794,-6.7974,-6.7982,-6.7812,-6.779,-6.7769,-6.7738,-6.7982,-6.7982,-6.8155,-6.8156,-6.8158]}]]